Temp
21 21 21 21 21 21 21 21 21 21 21 21 21 22 22 22 21 20 20 20 20 19 19 19 19 19 19 19 19 18 18 18 18 17 17 17 18 18 18 18 18 17
21 21 21 21 21 21 21 21 21 21 21 21 21 22 22 22 21 21 20 20 20 19 20 19 19 19 19 19 19 18 18 18 18 18 18 18 18 19 18 18 18 17
21 21 21 21 21 21 21 21 21 21 21 21 21 21 21 21 21 21 20 20 20 20 20 20 19 19 19 19 19 18 18 18 18 18 18 19 19 19 19 18 18 17
21 21 21 21 21 21 21 21 21 21 21 21 21 21 21 21 21 21 20 20 20 20 20 20 20 19 19 19 19 19 18 18 18 19 19 19 19 19 19 18 17 17
22 22 21 21 21 21 21 21 21 21 21 21 21 21 21 21 21 21 20 20 20 20 20 20 20 20 19 19 19 19 19 19 19 18 19 19 19 19 19 18 18 17
22 22 22 21 21 21 21 21 22 22 21 21 21 21 21 21 21 21 21 21 20 20 20 20 20 20 20 20 19 19 19 19 19 19 19 19 19 19 19 19 18 18
22 22 22 22 21 21 21 22 22 22 22 21 21 21 21 21 21 21 21 21 20 20 20 20 20 20 20 20 20 19 19 19 19 19 19 19 19 19 19 19 19 18
22 22 22 22 21 21 22 22 22 23 23 22 21 21 21 21 21 21 21 21 20 20 20 20 20 20 20 20 20 20 20 19 19 19 19 19 19 19 19 19 19 19
22 22 22 22 22 21 22 23 23 23 23 22 22 21 21 21 21 21 21 21 20 20 20 20 20 20 20 20 20 20 20 20 20 20 20 20 20 20 19 19 19 19
23 23 22 22 22 22 22 23 23 23 23 23 22 22 21 21 21 21 21 21 20 20 20 20 20 20 20 20 20 20 20 20 20 20 20 20 20 20 20 19 19 19
23 23 22 22 22 22 22 23 23 23 23 23 22 22 21 21 21 21 21 21 20 20 20 20 20 20 20 20 20 20 20 20 20 20 20 21 21 20 20 20 19 19
23 23 23 23 22 22 22 22 23 23 23 23 23 22 21 21 21 21 21 21 21 21 20 20 20 20 20 20 20 20 20 20 19 19 20 20 21 20 20 20 20 20
24 24 23 23 23 23 22 22 22 23 23 23 23 22 22 21 21 21 21 21 21 21 21 20 20 20 20 20 20 20 20 20 19 19 20 20 20 20 20 20 20 19
24 24 24 23 23 23 22 22 22 22 23 23 23 22 22 21 21 21 21 21 21 21 20 20 20 20 20 20 19 19 19 19 19 19 19 20 20 20 20 19 19 19
24 24 24 23 23 23 23 22 22 22 22 22 23 23 22 22 22 21 21 21 21 21 20 20 20 20 20 20 19 19 19 19 19 19 19 19 20 20 19 19 19 19
23 23 23 23 23 23 23 22 22 21 21 22 22 23 23 23 22 21 21 21 21 21 20 20 20 20 20 20 19 19 19 19 19 19 19 19 19 19 19 18 18 18
23 23 23 23 23 23 22 22 22 21 21 21 22 23 23 23 23 22 21 21 21 21 20 20 20 20 20 20 19 19 19 19 19 19 19 19 18 18 18 18 18 18
23 22 23 23 23 23 22 22 21 21 21 21 21 22 23 23 23 23 22 22 21 21 20 20 21 21 20 20 20 19 19 19 19 19 19 19 18 18 18 17 18 18
23 22 23 23 23 23 22 21 21 21 21 21 21 22 22 23 23 23 23 22 21 21 21 21 21 21 21 20 20 19 19 18 18 18 19 19 18 18 17 17 17 17
22 22 23 23 23 22 22 22 22 22 22 21 21 21 21 22 23 23 23 23 22 21 21 21 21 21 21 20 20 19 18 17 17 18 18 18 18 17 17 17 17 17
23 23 23 23 22 22 22 22 22 22 22 21 21 21 21 23 23 23 23 23 23 22 22 21 22 22 21 21 20 19 18 17 16 16 17 18 17 17 16 16 17 17
23 23 23 23 22 22 22 22 22 22 22 22 21 21 21 22 22 23 23 23 23 23 22 22 22 22 21 21 20 19 18 17 16 16 17 17 17 17 16 17 17 16
24 23 23 23 22 22 22 22 22 22 22 22 21 21 21 21 22 22 22 23 23 23 23 22 22 22 21 21 20 18 18 17 17 17 17 16 16 16 16 17 16 16
24 24 24 24 23 23 23 22 22 22 22 22 21 21 21 22 22 22 22 23 24 23 23 23 22 22 22 21 20 19 18 17 17 18 17 16 15 15 16 16 16 16
25 24 24 24 24 24 23 23 23 23 22 22 21 21 22 21 21 21 22 23 23 23 23 23 22 22 21 20 20 19 18 17 17 17 17 16 15 15 16 16 16 16
25 25 25 25 25 25 24 24 23 23 22 21 21 21 21 21 21 21 21 21 22 22 22 22 21 21 21 20 20 19 18 17 17 17 17 16 16 16 16 16 16 16
Height
1513 1516 1518 1521 1523 1525 1528 1531 1533 1535 1537 1538 1539 1540 1541 1543 1545 1546 1548 1550 1551 1553 1555 1556 1558 1559 1560 1560 1561 1562 1563 1564 1565 1566 1566 1567 1567 1567 1568 1569 1569 1570
1510 1513 1515 1517 1520 1522 1525 1528 1530 1533 1534 1536 1537 1539 1540 1542 1543 1545 1546 1548 1550 1552 1554 1555 1556 1557 1558 1559 1561 1561 1562 1563 1564 1565 1565 1565 1566 1566 1566 1567 1568 1569
1506 1509 1512 1514 1516 1518 1521 1524 1527 1530 1532 1534 1535 1537 1539 1540 1542 1543 1545 1547 1549 1551 1552 1554 1555 1556 1557 1558 1560 1560 1561 1562 1563 1563 1564 1564 1565 1565 1565 1566 1567 1567
1503 1505 1508 1510 1513 1516 1519 1521 1524 1527 1529 1531 1533 1535 1537 1539 1540 1541 1543 1545 1547 1549 1550 1552 1553 1554 1556 1557 1558 1559 1559 1560 1561 1562 1562 1563 1563 1564 1564 1565 1565 1566
1499 1502 1505 1508 1510 1513 1515 1517 1520 1523 1526 1528 1531 1533 1535 1537 1538 1540 1541 1543 1545 1547 1549 1550 1551 1553 1554 1555 1556 1556 1557 1558 1559 1559 1560 1561 1562 1562 1563 1563 1564 1564
1496 1499 1502 1504 1507 1509 1512 1513 1516 1520 1523 1525 1528 1531 1533 1535 1536 1538 1540 1541 1543 1545 1546 1548 1549 1550 1552 1553 1553 1554 1554 1555 1556 1557 1558 1559 1560 1561 1561 1562 1562 1563
1492 1495 1498 1501 1504 1506 1508 1510 1513 1516 1519 1523 1525 1528 1530 1532 1534 1536 1538 1539 1541 1542 1544 1545 1547 1548 1549 1550 1550 1551 1552 1553 1554 1555 1556 1557 1559 1559 1559 1560 1560 1560
1489 1492 1495 1498 1500 1502 1504 1506 1509 1512 1516 1519 1522 1525 1528 1530 1532 1533 1535 1537 1538 1540 1541 1543 1544 1545 1546 1547 1547 1548 1549 1550 1551 1552 1554 1555 1556 1557 1557 1557 1558 1558
1486 1489 1492 1494 1496 1498 1500 1502 1505 1509 1513 1516 1519 1522 1525 1527 1529 1531 1532 1534 1536 1537 1538 1540 1541 1542 1543 1543 1544 1545 1546 1547 1548 1550 1551 1552 1553 1554 1555 1556 1556 1557
1483 1485 1488 1490 1491 1494 1496 1499 1502 1505 1509 1512 1516 1519 1521 1524 1526 1528 1529 1531 1533 1534 1535 1536 1537 1538 1539 1540 1541 1542 1543 1545 1546 1548 1549 1550 1551 1552 1554 1555 1555 1556
1479 1482 1484 1485 1487 1490 1493 1495 1498 1501 1505 1509 1512 1515 1517 1520 1522 1524 1526 1527 1529 1530 1531 1532 1533 1534 1535 1536 1537 1539 1541 1543 1544 1545 1546 1548 1549 1551 1552 1553 1554 1554
1475 1477 1479 1481 1484 1487 1490 1493 1495 1498 1501 1505 1508 1511 1514 1516 1518 1520 1522 1523 1524 1526 1527 1528 1530 1531 1531 1533 1535 1537 1539 1540 1541 1543 1545 1546 1548 1549 1551 1551 1552 1553
1470 1472 1475 1478 1481 1484 1488 1490 1492 1495 1497 1501 1504 1507 1510 1512 1514 1516 1517 1519 1520 1522 1523 1525 1526 1527 1528 1530 1532 1534 1536 1537 1538 1541 1542 1544 1546 1548 1549 1550 1551 1551
1465 1469 1472 1475 1479 1482 1486 1488 1490 1492 1494 1497 1500 1502 1505 1507 1509 1511 1513 1515 1516 1518 1519 1521 1522 1524 1525 1526 1528 1530 1532 1534 1536 1538 1540 1542 1544 1546 1548 1550 1550 1550
1460 1465 1468 1472 1476 1479 1482 1484 1486 1489 1491 1493 1496 1498 1500 1502 1505 1507 1508 1510 1512 1514 1516 1517 1518 1519 1520 1522 1524 1526 1529 1531 1533 1536 1538 1540 1543 1545 1548 1549 1549 1548
1457 1461 1464 1468 1471 1474 1478 1480 1483 1485 1488 1489 1491 1493 1495 1497 1500 1502 1503 1505 1507 1509 1511 1513 1514 1515 1516 1518 1520 1523 1526 1528 1531 1534 1536 1538 1540 1542 1542 1542 1543 1544
1452 1456 1460 1463 1466 1470 1474 1477 1480 1482 1484 1485 1486 1488 1490 1492 1495 1496 1498 1501 1503 1504 1507 1508 1509 1511 1512 1514 1516 1519 1522 1525 1529 1532 1534 1535 1536 1535 1535 1536 1538 1540
1448 1452 1456 1459 1462 1465 1469 1472 1476 1478 1479 1480 1481 1483 1485 1487 1489 1491 1493 1496 1498 1500 1502 1503 1505 1506 1508 1510 1512 1514 1517 1522 1526 1529 1530 1531 1531 1531 1533 1534 1536 1537
1444 1448 1452 1455 1458 1461 1465 1468 1471 1473 1473 1474 1476 1478 1480 1482 1483 1485 1488 1490 1492 1494 1496 1498 1500 1502 1504 1506 1507 1510 1514 1518 1522 1526 1528 1529 1529 1530 1531 1533 1533 1534
1440 1443 1447 1450 1454 1457 1460 1463 1464 1466 1467 1469 1471 1474 1475 1476 1477 1480 1482 1484 1487 1489 1491 1493 1495 1497 1499 1501 1503 1506 1511 1512 1515 1522 1526 1526 1526 1527 1528 1530 1531 1531
1436 1439 1443 1446 1449 1453 1455 1456 1458 1460 1462 1464 1466 1468 1470 1471 1472 1474 1476 1479 1481 1484 1486 1488 1490 1492 1494 1497 1500 1503 1507 1508 1511 1519 1523 1521 1521 1523 1524 1526 1528 1528
1430 1434 1438 1441 1445 1447 1449 1450 1452 1454 1456 1459 1461 1463 1466 1467 1468 1468 1470 1473 1476 1479 1481 1483 1485 1487 1489 1493 1496 1499 1503 1505 1507 1513 1515 1514 1516 1519 1520 1522 1523 1523
1426 1429 1433 1436 1439 1441 1442 1445 1447 1449 1451 1454 1456 1458 1460 1462 1463 1463 1466 1469 1472 1474 1476 1478 1481 1483 1485 1489 1492 1494 1498 1501 1503 1506 1508 1510 1513 1515 1516 1516 1517 1518
1420 1424 1427 1431 1433 1434 1436 1439 1442 1444 1447 1449 1451 1453 1455 1457 1458 1460 1462 1465 1467 1469 1472 1474 1476 1478 1481 1485 1488 1489 1491 1495 1500 1502 1504 1506 1510 1512 1511 1511 1512 1514
1415 1418 1422 1425 1426 1428 1431 1434 1436 1439 1442 1445 1447 1449 1452 1454 1455 1457 1459 1460 1463 1465 1468 1470 1472 1474 1478 1481 1484 1485 1486 1489 1495 1499 1499 1501 1505 1507 1507 1507 1509 1511
1412 1414 1415 1418 1420 1422 1425 1428 1431 1435 1438 1441 1443 1446 1449 1451 1452 1454 1456 1458 1460 1463 1465 1467 1468 1471 1475 1478 1481 1483 1483 1485 1490 1494 1496 1498 1500 1502 1503 1504 1505 1507
Wind_Speed
48 46 45 44 43 41 38 36 35 35 34 32 30 29 28 27 26 25 25 25 24 23 23 23 21 20 19 18 17 16 15 13 13 12 11 12 14 15 17 18 17 17
48 46 45 45 44 43 40 37 36 35 34 32 30 29 28 27 26 25 25 25 24 23 23 23 22 21 21 20 18 16 15 14 14 13 12 13 14 15 16 17 18 19
48 46 45 45 44 43 43 40 37 36 35 33 31 30 29 28 26 25 26 25 24 23 23 24 23 22 22 21 18 16 15 15 14 13 14 14 15 16 16 17 19 21
48 46 45 44 43 42 42 42 40 38 36 35 33 32 30 28 26 26 27 26 24 23 23 24 24 23 22 22 19 17 17 16 14 15 16 16 16 17 16 17 19 21
48 46 45 44 43 42 42 43 43 41 38 37 35 33 32 30 27 27 28 28 26 24 24 25 25 24 23 22 21 18 18 18 17 17 19 18 17 18 17 17 19 21
48 46 44 43 43 42 42 42 42 41 41 39 36 35 33 31 29 28 28 28 27 26 25 26 26 25 24 23 22 21 20 19 19 20 21 20 19 18 18 19 21 22
49 46 44 44 43 42 42 42 41 41 41 40 38 37 35 33 31 29 29 28 27 27 27 27 27 26 25 24 24 23 22 21 21 22 22 22 21 20 19 20 22 23
48 46 44 44 44 42 41 41 42 41 40 40 40 39 37 35 33 31 30 29 28 28 29 29 28 27 26 26 26 25 24 22 22 23 24 24 24 23 22 22 23 23
47 46 44 44 44 42 41 41 42 41 40 39 39 39 39 37 35 32 31 30 29 29 30 30 30 29 28 27 27 26 25 24 24 24 25 25 25 25 24 23 24 23
47 46 45 45 44 42 40 41 41 41 40 39 38 38 39 39 37 35 33 32 31 30 31 32 32 31 29 29 29 28 26 25 24 25 25 26 26 25 25 25 25 24
48 47 46 45 44 42 40 40 41 41 40 39 38 38 39 39 39 37 35 34 33 33 32 33 34 33 32 31 30 29 27 26 26 26 26 26 26 25 25 25 25 24
49 48 47 45 44 42 40 40 41 42 40 38 38 38 38 40 40 39 37 36 35 35 34 34 35 35 35 33 32 30 29 28 28 27 26 26 26 25 25 25 25 24
50 48 47 45 44 42 40 40 41 41 41 39 38 37 38 39 40 40 39 37 37 37 37 37 36 37 37 35 34 32 31 30 29 28 27 27 26 26 25 25 25 25
51 49 47 46 44 42 41 41 41 41 40 40 39 38 38 38 39 39 39 39 39 39 39 39 38 38 38 38 36 35 33 32 30 29 28 27 27 26 26 26 26 26
51 49 48 47 45 44 42 42 41 41 40 40 40 39 39 38 38 39 40 40 40 40 40 40 40 40 40 39 38 36 34 33 32 30 28 28 27 26 25 25 26 28
52 50 49 48 48 46 44 43 43 42 41 40 41 41 40 39 38 40 41 42 41 41 42 42 42 41 41 40 40 38 35 34 33 31 29 29 27 26 26 26 26 28
52 51 50 49 49 48 46 45 44 43 42 41 41 41 41 40 40 40 41 42 42 43 43 43 44 43 42 42 41 40 38 36 34 31 30 31 30 30 29 27 24 26
51 51 50 50 49 48 48 47 46 45 44 44 43 42 41 41 42 41 41 41 42 44 44 44 44 44 43 43 42 41 40 38 36 33 31 31 33 33 32 27 22 23
51 50 50 50 49 49 48 47 47 46 46 46 46 44 42 42 42 42 41 41 42 43 44 44 44 44 44 43 43 43 42 41 39 34 31 32 34 34 33 28 22 22
51 50 49 49 49 49 48 48 48 48 48 47 47 46 45 43 43 43 42 42 42 42 43 44 44 44 44 43 43 43 42 45 43 35 32 35 36 34 33 29 23 22
50 50 49 49 49 49 49 49 49 49 49 49 49 48 47 44 43 43 43 42 42 41 42 43 43 43 43 42 42 43 42 44 43 36 33 36 35 33 33 31 27 25
50 50 49 49 49 50 50 50 50 50 50 50 50 50 48 45 44 44 43 42 41 41 42 42 41 41 42 41 41 42 42 42 42 37 34 36 35 30 28 28 28 29
51 50 50 50 50 51 51 51 51 51 51 51 51 51 49 47 46 46 44 42 40 41 41 40 40 40 40 39 40 42 41 41 40 37 35 38 36 29 26 25 27 30
51 51 50 50 51 52 52 52 51 51 51 51 52 51 49 48 47 46 44 42 41 41 39 37 38 37 36 36 38 41 42 40 37 35 35 38 35 29 28 28 28 29
52 52 51 51 51 52 52 52 51 51 51 51 51 51 49 48 48 46 44 43 41 40 37 36 37 36 34 34 36 39 41 40 36 32 30 33 34 31 29 29 28 28
52 52 52 51 51 52 52 52 52 51 51 51 50 49 48 48 47 46 44 43 42 39 37 37 37 35 33 33 34 37 39 39 36 30 25 25 29 30 28 27 26 26
Wind_Direction
234 235 236 236 237 236 235 234 233 231 228 226 226 227 229 231 232 233 235 236 236 235 235 232 229 229 231 234 233 228 226 229 233 238 245 249 250 247 241 235 234 234
234 235 236 237 237 236 235 233 233 232 230 228 227 229 232 234 235 235 235 235 233 233 232 230 229 229 230 233 232 228 228 229 230 237 244 249 251 249 242 234 229 228
233 234 235 236 237 236 235 233 232 232 232 231 229 230 233 235 237 237 235 233 232 231 231 229 228 228 229 231 232 230 231 232 232 236 241 245 248 246 239 232 227 227
233 234 235 236 237 237 236 234 232 231 232 233 231 232 234 235 237 238 236 234 232 231 230 229 229 228 229 231 232 231 233 234 235 237 239 242 245 243 236 229 227 229
233 234 235 236 236 237 236 235 234 232 232 233 233 233 234 235 236 237 236 235 232 231 230 230 230 229 229 231 232 231 232 233 234 236 238 240 243 243 237 232 231 232
232 234 235 235 236 236 236 236 235 234 233 234 234 234 234 235 236 236 236 235 233 231 230 230 231 231 230 231 232 231 232 234 236 238 239 239 241 241 238 235 233 233
232 233 234 235 235 236 237 237 237 235 233 234 234 235 235 235 236 237 235 235 234 233 232 232 234 233 230 229 230 231 232 235 237 240 241 241 241 240 238 235 234 234
232 233 233 234 235 235 236 236 236 235 234 233 233 235 235 236 238 238 236 235 234 234 234 234 235 235 231 229 229 229 231 233 237 240 241 241 240 239 237 235 234 235
232 232 233 233 234 235 234 233 234 235 234 233 233 234 235 236 239 240 238 236 236 236 236 235 236 235 232 230 230 229 230 233 236 240 241 240 238 238 237 237 236 237
231 232 232 233 233 233 232 231 232 233 233 232 232 233 234 236 238 240 240 239 238 238 237 236 236 235 233 232 231 230 231 233 236 240 242 241 239 238 239 238 238 239
231 231 232 232 233 232 231 230 230 232 232 232 232 233 235 236 237 240 241 240 239 239 239 238 236 236 235 234 232 231 231 233 237 240 242 243 242 240 240 240 238 240
231 231 232 232 232 232 231 230 230 231 232 232 232 233 234 236 237 239 240 241 241 241 241 240 239 238 237 236 234 232 231 233 236 239 242 244 242 241 242 241 239 240
230 231 232 232 232 232 232 232 231 230 231 231 232 232 234 236 237 238 240 242 242 243 243 243 241 240 239 238 235 234 233 234 235 238 241 243 242 242 243 244 241 240
230 231 232 232 233 233 233 233 232 231 230 231 232 232 233 235 237 239 240 241 243 244 245 245 244 243 242 239 237 235 235 235 237 239 241 243 242 241 244 247 245 243
229 230 231 232 232 232 233 233 232 231 230 231 232 233 234 235 238 239 241 242 243 245 246 246 246 246 245 242 239 237 236 236 237 239 242 244 244 242 245 250 250 247
227 228 229 230 231 231 232 232 232 232 231 231 232 233 234 235 237 239 241 242 244 245 246 246 247 248 248 246 243 241 239 238 237 239 241 244 243 240 241 246 247 247
226 227 228 229 231 231 232 232 232 231 231 231 232 232 233 234 236 238 240 242 244 245 246 247 248 250 250 249 246 243 242 239 238 239 240 242 243 238 234 238 241 242
226 225 227 229 231 231 231 231 231 232 232 232 232 232 232 233 235 237 239 242 244 245 246 248 250 251 252 251 248 246 244 240 238 239 240 243 247 242 236 239 242 240
226 225 226 229 231 231 231 230 231 232 233 233 233 233 232 233 235 237 238 240 242 244 246 249 250 252 253 252 251 249 245 238 234 236 240 244 248 246 241 241 243 242
225 226 228 229 230 229 229 230 232 233 234 234 233 232 232 234 235 236 237 239 241 243 246 248 250 252 253 253 254 252 245 239 235 233 238 244 247 249 246 242 244 248
225 227 228 228 228 228 229 231 233 234 234 234 233 233 233 234 235 236 237 238 240 242 245 248 250 252 254 255 256 252 246 241 238 236 238 241 244 249 248 243 243 247
226 227 227 228 227 227 229 231 232 233 234 234 233 233 234 235 236 237 237 237 240 242 244 247 249 252 254 255 256 252 246 242 242 245 245 241 242 248 245 240 242 242
227 227 227 228 227 228 230 231 232 233 234 233 232 232 233 234 235 236 237 238 240 242 244 246 249 251 253 255 255 250 244 242 244 251 250 243 244 251 246 243 249 245
228 227 227 228 229 230 231 231 232 234 234 233 232 233 234 235 235 235 236 238 240 241 243 246 248 251 253 254 254 250 245 243 244 251 253 247 245 248 244 246 253 250
229 227 228 230 231 232 232 232 233 234 233 233 233 234 236 236 235 235 236 238 239 241 244 246 247 251 252 253 254 251 248 245 242 246 253 249 243 243 243 245 250 253
230 229 229 231 232 233 233 234 234 233 232 231 232 234 236 235 235 235 235 237 238 240 243 245 246 249 251 252 254 254 252 247 242 243 247 241 237 239 240 242 247 253